Das Wetter in  D-61279 Heinzenberg / Taunus





Wetter Minimum- & Maximum-Werte im Oktober 2015

Standort: Heinzenberg / Taunus - Höhe 297 m         8 24' 1" Ost 50 21' 51" Nord
(   3-stündige Aktualisierung    letzte Aktualisierung um 19:04 am 31.10.2015  )


Messgrösse

Minimum

Maximum

Durchschnitt

Temperatur West /
Luftfeuchte West
Anklicken für Monats-Diagramm

-2,3 C

08:36
12.10.2015

36 %

15:42
02.10.2015

23,8 C

16:02
02.10.2015

92 %

05:20
16.10.2015

Temp

8,7 C

Feuchte

80 %

Temperatur Ost /
Luftfeuchte Ost
Anklicken für Monats-Diagramm

-1,9 C

07:47
13.10.2015

--

--
--

22,6 C

16:17
02.10.2015

--

--
--

8,8 C

--

Luftdruck Anklicken für Monats-Diagramm

1003,5 hPa

17:21
06.10.2015

1032,6 hPa

00:41
01.10.2015

1019,1 hPa

Taupunkt

-5,3 C

08:36
12.10.2015

15,3 C

17:21
06.10.2015

5,3 C

Windchill
( gefühlte Temperatur )

-3,7 C

02:37
13.10.2015

23,8 C

16:12
02.10.2015

8,1 C

Windgeschwindigkeit /
Windrichtung
Anklicken für Monats-Diagramm

---

34,9 km/h / W-SW

11:57
07.10.2015

3,3 km/h
O-SO

Helligkeit /
Sonnenschein
Anklicken für Monats-Diagramm
Anklicken für Monats-Diagramm

Sonnenschein:

85:02 Stunden

Max: 10:00 Std am
02.10.2015

80,5 klux

12:47
07.10.2015

15,6 klux

Solarstrahlung Anklicken für Monats-Diagramm

---

551 W/m

12:47
07.10.2015

116 W/m

Regenmenge
    Oktober 2015
Anklicken für Monats-Diagramm

Insgesamt 30,1 l/m

in 46:29 Stunden
an 16 Tagen

11,9 l/m

20:04
15.10.2015

Gesamtmenge

30,1 l/m

Regen-Tage
    Oktober 2015
Anklicken für Monats-Diagramm

>   0 mm/Tag

>   2 mm/Tag

>   5 mm/Tag

> 10 mm/Tag

> 20 mm/Tag

16 Tage     
4 Tage     
2 Tage     
2 Tage     
0 Tage     

Eisige Tage Oktober 2015 / 2014

Tmin ≤ -10C     

0 Tage

/

0 Tage

Eistage Oktober 2015 / 2014

Tmax <     0C     

0 Tage

/

0 Tage

Frosttage Oktober 2015 / 2014

Tmin ≤     0C     

2 Tage

/

0 Tage

Kalte Tage Oktober 2015 / 2014

Tmax <   10C     

8 Tage

/

2 Tage

Warme Tage Oktober 2015 / 2014

Tmax ≥   20C     

2 Tage

/

6 Tage

Sommertage Oktober 2015 / 2014

Tmax ≥   25C     

0 Tage

/

0 Tage

Heisse Tage Oktober 2015 / 2014

Tmax ≥   30C     

0 Tage

/

0 Tage


Monatsdiagramm Oktober 2015

Die Kurven zeigen den Durchschnittswert des jeweiligen Tages an


Wetter-Monatsübersicht Oktober 2015
Datum
  Temperatur
   Luftdruck
   Wind
  Regen
   Luftfeuchte
   Helligkeit

Sonnen-
schein


Temp.

Min.
Temp.

Max.
Temp.


Luftdruck

Min.
Luftdruck

Max.
Luftdruck

-Geschw.
Haupt-Richtg.

Max.
Wind

Menge /
Dauer


Feuchte

Min.
Feuchte

Max.
Feuchte


Helligkeit

Max.
Helligkeit

1.
Oktober
10,5 C2,5 C
05:56
19,7 C
17:06
1029,7 hPa1027,1 hPa
17:06
1032,6 hPa
00:41
4,4 km/h
O-NO
23,8 km/h
16:11  
---
60 %38 %
15:31
79 %
07:06
33,3 klux57,2 klux
13:26
9:55 Std 
2.
Oktober
10,5 C1,1 C
07:47
23,8 C
16:02
1024,0 hPa1018,4 hPa
17:07
1029,2 hPa
03:57
2,7 km/h
SO
20,0 km/h
13:52  
---
64 %36 %
15:42
84 %
09:42
33,6 klux56,4 klux
13:37
10:00 Std 
3.
Oktober
12,0 C4,3 C
07:58
23,5 C
15:43
1015,9 hPa1012,9 hPa
19:08
1019,3 hPa
01:33
2,9 km/h
SO
19,9 km/h
16:28  
---
68 %41 %
15:48
83 %
09:08
30,4 klux68,6 klux
13:18
8:15 Std 
4.
Oktober
11,4 C7,2 C
05:39
18,4 C
17:19
1016,8 hPa1014,8 hPa
00:04
1018,4 hPa
11:54
2,5 km/h
W-SW
18,1 km/h
14:54  
---
79 %66 %
17:24
87 %
09:54
14,1 klux46,6 klux
16:59
1:30 Std 
5.
Oktober
12,5 C7,4 C
03:19
19,2 C
14:19
1013,8 hPa1008,2 hPa
23:16
1017,2 hPa
03:19
7,1 km/h
O-SO
26,2 km/h
14:34  
1,5 l/m
1:52 Stunden
77 %59 %
14:19
89 %
07:59
24,5 klux74,5 klux
14:09
3:55 Std 
6.
Oktober
15,5 C12,8 C
02:41
18,0 C
17:21
1005,2 hPa1003,5 hPa
17:21
1008,2 hPa
00:01
9,1 km/h
O-SO
24,2 km/h
02:46  
2,6 l/m
4:10 Stunden
85 %80 %
13:06
89 %
05:21
9,7 klux32,4 klux
11:46
--- 
7.
Oktober
14,7 C12,6 C
23:43
17,3 C
12:52
1011,2 hPa1005,9 hPa
00:42
1016,5 hPa
23:43
10,0 km/h
W-SW
34,9 km/h
11:57  
---
81 %69 %
12:57
89 %
06:37
15,9 klux80,5 klux
12:47
1:10 Std 
8.
Oktober
12,9 C11,8 C
03:18
16,3 C
14:38
1019,3 hPa1016,5 hPa
00:03
1021,8 hPa
23:54
7,0 km/h
W
20,0 km/h
01:43  
---
78 %66 %
14:33
84 %
23:29
14,7 klux48,5 klux
13:48
15 Min 
9.
Oktober
12,4 C10,5 C
08:09
19,2 C
16:04
1020,6 hPa1018,9 hPa
16:04
1021,9 hPa
10:44
1,0 km/h
N-NW
10,8 km/h
15:39  
2,3 l/m
4:10 Stunden
86 %68 %
16:04
91 %
09:34
13,0 klux67,6 klux
15:04
1:30 Std 
10.
Oktober
11,8 C7,5 C
22:19
17,8 C
15:49
1018,6 hPa1015,9 hPa
15:49
1019,9 hPa
08:59
4,7 km/h
NO
21,7 km/h
14:24  
---
76 %52 %
15:04
90 %
00:29
22,2 klux54,4 klux
14:29
4:50 Std 
11.
Oktober
7,8 C2,4 C
08:30
15,7 C
15:25
1017,1 hPa1015,1 hPa
15:25
1018,7 hPa
23:31
3,1 km/h
NO
21,8 km/h
17:20  
---
64 %41 %
16:20
77 %
08:10
29,8 klux50,9 klux
13:20
9:30 Std 
12.
Oktober
4,4 C-2,3 C
08:36
12,8 C
14:31
1018,4 hPa1016,5 hPa
14:46
1020,5 hPa
08:36
1,5 km/h
SO
17,3 km/h
12:16  
---
66 %41 %
14:41
82 %
09:51
23,6 klux51,7 klux
12:56
4:55 Std 
13.
Oktober
2,7 C-2,2 C
07:12
8,4 C
13:57
1016,7 hPa1015,0 hPa
13:57
1018,8 hPa
23:03
3,3 km/h
NO
19,0 km/h
14:12  
0,8 l/m
2:26 Stunden
77 %66 %
14:12
84 %
09:57
15,9 klux56,2 klux
12:07
1:10 Std 
14.
Oktober
1,9 C0,3 C
07:48
3,0 C
21:13
1018,0 hPa1016,8 hPa
16:48
1018,9 hPa
01:53
0,1 km/h
NW
2,5 km/h
03:43  
10,0 l/m
13:25 Stunden
88 %82 %
00:03
89 %
12:58
5,3 klux25,3 klux
12:33
--- 
15.
Oktober
2,4 C0,3 C
10:14
3,5 C
16:49
1016,7 hPa1014,6 hPa
16:14
1018,9 hPa
02:14
0,4 km/h
NW
6,8 km/h
01:14  
11,9 l/m
13:51 Stunden
90 %89 %
00:04
91 %
15:04
3,0 klux12,7 klux
11:59
--- 
16.
Oktober
4,9 C3,5 C
00:00
6,6 C
14:35
1018,0 hPa1016,6 hPa
05:20
1019,5 hPa
21:55
3,2 km/h
SW
13,0 km/h
14:00  
---
90 %88 %
16:25
92 %
05:20
5,4 klux21,6 klux
14:10
--- 
17.
Oktober
5,9 C4,6 C
08:21
8,0 C
15:11
1018,5 hPa1017,5 hPa
05:36
1019,6 hPa
23:57
1,8 km/h
SW
13,8 km/h
11:21  
---
84 %74 %
15:51
90 %
10:01
8,3 klux18,8 klux
13:56
--- 
18.
Oktober
5,9 C4,3 C
23:48
9,5 C
14:52
1019,3 hPa1018,6 hPa
05:07
1020,7 hPa
23:48
0,3 km/h
NW
6,6 km/h
16:47  
---
15 Minuten
86 %76 %
14:52
91 %
12:47
7,7 klux44,4 klux
14:42
10 Min 
19.
Oktober
6,3 C2,8 C
06:33
9,9 C
14:53
1021,3 hPa1020,7 hPa
00:03
1022,4 hPa
11:33
1,2 km/h
W-NW
10,9 km/h
14:23  
0,5 l/m
1:15 Stunden
86 %76 %
14:38
91 %
10:58
10,4 klux31,3 klux
12:08
--- 
20.
Oktober
8,3 C5,6 C
09:24
12,2 C
14:44
1022,2 hPa1020,7 hPa
14:44
1023,3 hPa
23:40
2,2 km/h
NW
14,2 km/h
13:44  
---
85 %69 %
14:54
92 %
10:29
16,1 klux63,7 klux
12:24
1:55 Std 
21.
Oktober
8,3 C5,9 C
08:30
13,3 C
15:10
1020,9 hPa1018,2 hPa
22:31
1023,4 hPa
02:25
1,9 km/h
W-SW
15,7 km/h
15:20  
---
83 %64 %
15:10
90 %
07:15
11,1 klux55,3 klux
15:05
35 Min 
22.
Oktober
9,3 C6,5 C
01:21
11,1 C
15:31
1016,9 hPa1015,7 hPa
15:31
1019,9 hPa
23:22
8,4 km/h
W-SW
20,1 km/h
22:27  
0,2 l/m
1:25 Stunden
86 %81 %
04:16
91 %
23:02
7,0 klux24,9 klux
14:16
--- 
23.
Oktober
10,4 C4,7 C
23:58
17,2 C
15:27
1023,6 hPa1019,9 hPa
00:02
1025,4 hPa
09:17
2,5 km/h
W-NW
16,5 km/h
15:02  
0,2 l/m
10 Minuten
80 %53 %
15:12
91 %
00:02
25,5 klux55,6 klux
15:02
6:50 Std 
24.
Oktober
7,1 C3,2 C
04:13
11,9 C
17:03
1019,6 hPa1016,6 hPa
17:03
1023,8 hPa
00:33
2,1 km/h
O-SO
14,8 km/h
15:38  
---
40 Minuten
85 %77 %
17:13
89 %
07:08
8,0 klux22,2 klux
09:28
21 Min 
25.
Oktober
9,5 C5,2 C
00:04
15,3 C
15:39
1023,5 hPa1019,5 hPa
02:49
1026,1 hPa
22:14
0,9 km/h
W-NW
10,1 km/h
13:14  
---
30 Minuten
86 %73 %
15:34
91 %
08:04
8,5 klux30,9 klux
15:19
40 Min 
26.
Oktober
9,9 C4,8 C
23:55
19,0 C
15:00
1021,1 hPa1017,8 hPa
15:10
1025,2 hPa
00:00
1,8 km/h
O-SO
21,0 km/h
15:25  
---
80 %55 %
15:25
92 %
09:30
23,7 klux55,2 klux
11:50
5:35 Std 
27.
Oktober
7,5 C1,3 C
08:15
16,6 C
14:25
1017,7 hPa1015,0 hPa
23:46
1020,1 hPa
08:15
2,8 km/h
O-SO
19,8 km/h
21:35  
---
82 %62 %
13:15
91 %
10:55
23,3 klux45,3 klux
12:20
6:41 Std 
28.
Oktober
8,4 C7,2 C
00:46
9,4 C
13:21
1013,1 hPa1011,8 hPa
13:21
1015,1 hPa
00:46
5,6 km/h
O-SO
23,9 km/h
05:16  
0,2 l/m
55 Minuten
85 %82 %
13:16
89 %
20:21
5,4 klux20,2 klux
10:56
--- 
29.
Oktober
10,0 C6,9 C
23:58
15,6 C
15:27
1018,9 hPa1014,0 hPa
00:02
1024,5 hPa
23:58
1,0 km/h
NW
12,3 km/h
13:22  
---
15 Minuten
87 %73 %
15:27
92 %
09:42
9,2 klux43,8 klux
14:07
35 Min 
30.
Oktober
8,4 C4,5 C
23:54
15,4 C
14:33
1026,9 hPa1024,5 hPa
00:03
1029,0 hPa
23:54
1,9 km/h
O-SO
19,8 km/h
12:58  
0,2 l/m
1:05 Stunden
84 %64 %
14:18
92 %
06:43
11,4 klux35,1 klux
13:53
1:10 Std 
31.
Oktober
7,1 C2,1 C
23:49
14,2 C
15:34
1028,6 hPa1026,7 hPa
15:34
1031,3 hPa
23:30
5,2 km/h
O-SO
26,0 km/h
06:24  
---
5 Minuten
81 %61 %
14:54
89 %
01:39
13,5 klux48,8 klux
13:19
3:35 Std 



Oktober
2015

Temperatur

  

Luftdruck

  

Wind

  

Regen

  

Luftfeuchte

  

Helligkeit

Sonnen-
schein

Min

Max

Min

Max

Max

Max

Min

Max

Max

Max

8,7 C

-2,3 C

08:36 Uhr
12.10.2015

23,8 C

16:02 Uhr
02.10.2015

1019,1 hPa

1003,5 hPa

17:21 Uhr
06.10.2015

1032,6 hPa

00:41 Uhr
01.10.2015

3,3 km/h

O-SO

34,9 km/h

11:57 Uhr
07.10.2015

11,9 l/m

13:51 Stunden
15.10.2015

80 %

36 %

15:42 Uhr
02.10.2015

92 %

05:20 Uhr
16.10.2015

15,6 klux

80,5 klux

12:47 Uhr
07.10.2015

10:00 Std

am
02.10.2015

Gesamt

Gesamt

30,1 l/m

16 Tage
46:29 h

85:02 Std


Wetter-Diagramme Oktober 2015     Heinzenberg / Taunus   
TemperaturLuftfeuchte
SolarstrahlungLuftdruck
HelligkeitSonnenschein
RegenmengeRegendauer
Wind-GeschwindigkeitWind-Richtung